EW1850 Weather Reports


time (UTC)temp
C
wind
direction
speed
KPH
gust
KPH
rain 1hr
cm
rain 24hr
cm
rain mn
cm
humidity
%
barometer
mb
20260504110329 14 180 0.0 0.0 0.00 0.00 0.00 100 1000.0
20260504100427 15 161 0.0 0.0 0.00 0.00 0.00 100 1000.0
20260504081829 14 337 0.0 0.0 0.00 0.00 0.00 100 1000.0
20260504080829 14 225 0.0 0.0 0.00 0.00 0.00 100 1000.0
20260504045217 15 202 0.0 1.6 0.00 0.00 0.00 100 1001.7
20260504044216 15 179 3.2 9.7 0.00 0.00 0.00 100 1002.0
20260504043217 15 202 1.6 6.4 0.00 0.00 0.00 100 1002.0
20260504042316 15 112 0.0 0.0 0.00 0.00 0.00 100 1002.0
20260504041318 15 270 0.0 0.0 0.00 0.00 0.00 100 1002.0
20260504040316 15 202 0.0 3.2 0.00 0.00 0.00 100 1002.0
20260504035316 15 157 0.0 0.0 0.00 0.00 0.00 100 1002.0
20260504034415 14 202 0.0 0.0 0.00 0.00 0.00 100 1002.0
20260504033419 14 180 0.0 0.0 0.00 0.00 0.00 100 1002.4
20260504033319 14 180 0.0 0.0 0.00 0.00 0.00 100 1002.4
20260504032416 15 180 0.0 0.0 0.00 0.00 0.00 100 1002.4
20260504031516 14 179 1.6 8.0 0.00 0.00 0.00 100 1002.7
20260504030517 15 247 0.0 0.0 0.00 0.00 0.00 100 1002.7
20260504025518 15 247 0.0 0.0 0.00 0.00 0.00 100 1002.7
20260504024516 15 247 0.0 0.0 0.00 0.00 0.00 100 1002.7
20260504023518 15 247 0.0 0.0 0.00 0.00 0.00 100 1002.4
20260504022518 15 247 0.0 0.0 0.00 0.00 0.00 100 1002.4
20260504021518 16 247 0.0 3.2 0.00 0.00 0.00 100 1002.0
20260504020615 16 225 0.0 3.2 0.00 0.00 0.00 100 1002.0
20260504015616 16 174 0.0 4.8 0.00 0.00 0.00 100 1001.3
20260504014715 16 157 0.0 0.0 0.00 0.00 0.00 100 1001.3
20260504013717 16 173 1.6 11.3 0.00 0.00 0.00 100 1001.3
20260504012815 16 201 1.6 11.3 0.00 0.00 0.00 100 1001.3
20260504011818 16 177 0.0 0.0 0.00 0.00 0.00 100 1001.3
20260504011718 16 180 0.0 0.0 0.00 0.00 0.00 100 1001.3
20260504010716 16 191 0.0 0.0 0.00 0.00 0.00 100 1001.3
20260504005733 17 135 0.0 1.6 0.00 0.00 0.00 100 1001.7
20260504004718 17 186 1.6 6.4 0.00 0.00 0.00 100 1001.3
20260504002816 17 169 3.2 12.9 0.00 0.00 0.00 100 1002.0
20260504001818 17 229 0.0 4.8 0.00 0.00 0.00 100 1002.0
20260504000915 17 232 1.6 9.7 0.00 0.00 0.00 100 1002.0
20260503235916 18 247 0.0 3.2 0.00 0.00 0.00 100 1002.0
20260503234915 18 202 0.0 1.6 0.00 0.00 0.00 100 1002.0
20260503233919 18 180 3.2 11.3 0.00 0.00 0.00 100 1002.0
20260503231017 18 202 0.0 0.0 0.00 0.00 0.00 100 1003.1
20260503230018 18 215 0.0 1.6 0.00 0.00 0.00 100 1003.1
20260503225016 19 191 3.2 9.7 0.00 0.00 0.00 100 1003.4
20260503223116 20 202 1.6 6.4 0.00 0.00 0.00 100 1003.4
20260503222116 21 225 1.6 4.8 0.00 0.00 0.00 100 1003.8
20260503221118 21 199 3.2 9.7 0.00 0.00 0.00 100 1004.1
20260503220216 21 173 3.2 9.7 0.00 0.00 0.00 100 1004.1
20260503215216 21 177 4.8 14.5 0.00 0.00 0.00 100 1004.4
20260503214217 21 330 1.6 9.7 0.00 0.00 0.00 100 1004.4
20260503211217 21 201 3.2 9.7 0.00 0.00 0.00 100 1005.1
20260503210216 21 181 4.8 14.5 0.00 0.00 0.00 100 1005.1
20260503205216 21 203 1.6 8.0 0.00 0.00 0.00 100 1005.4
20260503204218 21 202 3.2 8.0 0.00 0.00 0.00 100 1005.8
20260503203315 21 226 0.0 4.8 0.00 0.00 0.00 100 1005.8
20260503202316 21 186 0.0 3.2 0.00 0.00 0.00 100 1005.8
20260503201332 22 163 4.8 9.7 0.00 0.00 0.00 100 1005.9
20260503200415 22 190 3.2 11.3 0.00 0.00 0.00 100 1006.1
20260503195417 22 169 1.6 9.7 0.00 0.00 0.00 100 1006.1
20260503193418 21 170 8.0 17.7 0.00 0.00 0.00 100 1006.8
20260503192418 21 243 4.8 16.1 0.00 0.00 0.00 100 1006.8
20260503191516 20 234 3.2 9.7 0.00 0.00 0.00 100 1006.8
20260503190516 21 247 0.0 4.8 0.00 0.00 0.00 100 1007.1
20260503185516 20 180 0.0 3.2 0.00 0.00 0.00 100 1007.5
20260503184516 20 169 4.8 11.3 0.00 0.00 0.00 100 1007.9
20260503183516 20 181 4.8 9.7 0.00 0.00 0.00 100 1007.9
20260503182516 20 216 4.8 8.0 0.00 0.00 0.00 100 1008.2
20260503181518 20 209 4.8 11.3 0.00 0.00 0.00 100 1008.2
20260503180415 20 243 0.0 3.2 0.00 0.00 0.00 100 1008.2
20260503175417 19 230 6.4 12.9 0.00 0.00 0.00 100 1008.5
20260503174416 18 174 6.4 16.1 0.00 0.00 0.00 100 1008.9
20260503173418 18 205 4.8 9.7 0.00 0.00 0.00 100 1009.2
20260503172516 18 183 3.2 16.1 0.00 0.00 0.00 100 1009.2
20260503171516 18 148 3.2 9.7 0.00 0.00 0.00 100 1009.5
20260503170615 18 214 1.6 9.7 0.00 0.00 0.00 100 1009.5
20260503170533 18 236 6.4 11.3 0.00 0.00 0.00 100 1009.5
20260503130715 11 157 0.0 0.0 0.00 0.00 0.00 100 1011.3